Breckenridge, MN

1:12 PM CST on January 18, 2017 (GMT -0600)
Stern

Weather History for KBWP - February, 2014

Change the Weather History Date:

Wednesday, February 26, 2014

  Actual Average (KFFM) Record (KFFM)
Temperature  
Mean Temperature 3 °F -  
Max Temperature 19 °F 30 °F 54 °F (1958)
Min Temperature -13 °F 9 °F -17 °F (1950)
Degree Days  
Heating Degree Days 62    
Moisture  
Dew Point -5 °F    
Average Humidity 69    
Maximum Humidity 85    
Minimum Humidity 60    
Precipitation  
Precipitation 0.00 in - - ()
Sea Level Pressure  
Sea Level Pressure 29.96 in    
Wind  
Wind Speed 17 mph (WNW)    
Max Wind Speed 30 mph    
Max Gust Speed 37 mph    
Visibility 7 miles    
Events      
Averages and records for this station are not official NWS values.
T = Trace of Precipitation, MM = Missing Value Source: NWS Daily Summary

Daily Weather History Graph

Daily Weather History Graph

Search for Another Location

Airport or City:

Trip Planner

Search our weather history database for the weather conditions in past years. The results will help you decide how hot, cold, wet, or windy it might be!

Date:

Astronomy

Feb. 26, 2014 Rise Set
Actual Time 7:10 AM CST 6:08 PM CST
Civil Twilight 6:40 AM CST 6:38 PM CST
Nautical Twilight 6:05 AM CST 7:13 PM CST
Astronomical Twilight 5:31 AM CST 7:48 PM CST
Moon 5:05 AM CST (2/26) 3:18 PM CST (2/26)
Length of Visible Light 11h 58m
Length of Day
10h 57m
Waning Crescent, 10% of the Moon is Illuminated
Feb 26
Waning Crescent
Mar 1
New
Mar 8
First Quarter
Mar 16
Full
Mar 23
Last Quarter

Hourly Weather History & Observations

Time (CST) Temp. Windchill Dew Point Humidity Pressure Visibility Wind Dir Wind Speed Gust Speed Precip Events Conditions
12:15 AM -13.0 °F -32.4 °F -18.4 °F 77% 30.34 in 10.0 mi West 10.4 mph - N/A   Clear
12:35 AM -13.0 °F -31.3 °F -18.4 °F 77% 30.32 in 10.0 mi West 9.2 mph - N/A   Clear
12:55 AM -11.2 °F -32.1 °F -16.6 °F 77% 30.32 in 10.0 mi West 12.7 mph - N/A   Clear
1:15 AM -7.6 °F -28.3 °F -14.8 °F 71% 30.30 in 10.0 mi West 13.8 mph - N/A   Clear
1:35 AM -7.6 °F -26.6 °F -14.8 °F 71% 30.29 in 10.0 mi WSW 11.5 mph - N/A   Clear
1:55 AM -7.6 °F -27.5 °F -14.8 °F 71% 30.27 in 10.0 mi WSW 12.7 mph - N/A   Clear
2:15 AM -7.6 °F -27.5 °F -14.8 °F 71% 30.26 in 10.0 mi WSW 12.7 mph - N/A   Clear
2:35 AM -7.6 °F -27.5 °F -14.8 °F 71% 30.23 in 10.0 mi WSW 12.7 mph - N/A   Clear
2:55 AM -7.6 °F -25.7 °F -14.8 °F 71% 30.22 in 10.0 mi WSW 10.4 mph - N/A   Clear
3:15 AM -7.6 °F -27.5 °F -14.8 °F 71% 30.19 in 10.0 mi WSW 12.7 mph - N/A   Clear
3:35 AM -7.6 °F -27.5 °F -14.8 °F 71% 30.17 in 10.0 mi WSW 12.7 mph - N/A   Scattered Clouds
3:55 AM -5.8 °F -22.4 °F -14.8 °F 65% 30.14 in 10.0 mi WSW 9.2 mph - N/A   Mostly Cloudy
4:15 AM -5.8 °F -21.2 °F -14.8 °F 65% 30.12 in 10.0 mi SW 8.1 mph - N/A   Scattered Clouds
4:35 AM -4.0 °F -22.1 °F -14.8 °F 60% 30.10 in 10.0 mi WSW 11.5 mph - N/A   Clear
4:55 AM -4.0 °F -24.5 °F -13.0 °F 65% 30.08 in 10.0 mi WSW 15.0 mph - N/A   Clear
5:15 AM -2.2 °F -22.9 °F -13.0 °F 60% 30.06 in 10.0 mi SW 16.1 mph - N/A   Clear
5:35 AM -2.2 °F -20.7 °F -11.2 °F 66% 30.05 in 10.0 mi WSW 12.7 mph - N/A   Clear
5:55 AM -0.4 °F -17.6 °F -9.4 °F 66% 30.02 in 10.0 mi SW 11.5 mph - N/A   Mostly Cloudy
6:15 AM 1.4 °F -16.1 °F -7.6 °F 66% 30.00 in 10.0 mi WSW 12.7 mph - N/A   Overcast
6:35 AM 1.4 °F -16.9 °F -5.8 °F 72% 29.99 in 10.0 mi WSW 13.8 mph 18.4 mph N/A   Overcast
6:55 AM 1.4 °F -21.4 °F -7.6 °F 66% 29.96 in 10.0 mi West 23.0 mph 27.6 mph N/A   Overcast
7:15 AM 1.4 °F -19.9 °F -7.6 °F 66% 29.93 in 10.0 mi WSW 19.6 mph 26.5 mph N/A   Overcast
7:35 AM 1.4 °F -19.9 °F -7.6 °F 66% 29.91 in 10.0 mi WSW 19.6 mph 24.2 mph N/A   Overcast
7:55 AM 1.4 °F -21.4 °F -5.8 °F 72% 29.89 in 10.0 mi West 23.0 mph 28.8 mph N/A   Overcast
8:15 AM 1.4 °F -23.2 °F -5.8 °F 72% 29.86 in 10.0 mi West 27.6 mph 32.2 mph N/A   Overcast
8:35 AM 3.2 °F -20.7 °F -5.8 °F 66% 29.86 in 5.0 mi West 27.6 mph 32.2 mph N/A   Overcast
8:55 AM 3.2 °F -19.0 °F -4.0 °F 72% 29.84 in 10.0 mi West 23.0 mph 29.9 mph N/A   Overcast
9:15 AM 5.0 °F -16.2 °F -4.0 °F 66% 29.82 in 10.0 mi West 21.9 mph - N/A   Overcast
9:35 AM 6.8 °F -13.4 °F -2.2 °F 67% 29.81 in 10.0 mi West 20.7 mph - N/A   Mostly Cloudy
9:55 AM 8.6 °F -10.0 °F -0.4 °F 67% 29.80 in 10.0 mi West 18.4 mph - N/A   Mostly Cloudy
10:15 AM 10.4 °F -9.1 °F -0.4 °F 62% 29.79 in 10.0 mi West 21.9 mph 26.5 mph N/A   Scattered Clouds
10:35 AM 10.4 °F -9.5 °F 1.4 °F 67% 29.76 in 10.0 mi West 23.0 mph - N/A   Clear
10:55 AM 12.2 °F -8.9 °F 3.2 °F 67% 29.75 in 3.0 mi West 28.8 mph 34.5 mph N/A   Scattered Clouds
11:15 AM 12.2 °F -9.3 °F 3.2 °F 67% 29.73 in 2.5 mi West 29.9 mph 35.7 mph N/A   Mostly Cloudy
11:35 AM 14.0 °F -5.5 °F 5.0 °F 67% 29.72 in 2.5 mi West 25.3 mph 33.4 mph N/A   Mostly Cloudy
11:55 AM 15.8 °F -3.4 °F 8.6 °F 73% 29.71 in 2.0 mi West 26.5 mph 35.7 mph N/A   Overcast
12:15 PM 19.4 °F 0.5 °F 8.6 °F 63% 29.72 in 4.0 mi NW 29.9 mph 35.7 mph N/A   Overcast
12:35 PM 19.4 °F 1.1 °F 8.6 °F 63% 29.71 in 2.5 mi WNW 27.6 mph 34.5 mph N/A   Overcast
12:55 PM 17.6 °F -1.6 °F 6.8 °F 63% 29.72 in 1.5 mi NW 28.8 mph 36.8 mph N/A   Mostly Cloudy
1:15 PM 17.6 °F -1.6 °F 8.6 °F 68% 29.71 in 2.0 mi NW 28.8 mph 34.5 mph N/A   Mostly Cloudy
1:35 PM 17.6 °F -1.3 °F 8.6 °F 68% 29.72 in 2.5 mi NNW 27.6 mph 34.5 mph N/A   Overcast
1:55 PM 17.6 °F 0.5 °F 8.6 °F 68% 29.72 in 2.5 mi NNW 21.9 mph 33.4 mph N/A   Overcast
2:15 PM 17.6 °F -0.6 °F 6.8 °F 63% 29.73 in 2.0 mi NNW 25.3 mph 35.7 mph N/A   Overcast
2:35 PM 17.6 °F 0.5 °F 8.6 °F 68% 29.74 in 3.0 mi NNW 21.9 mph 32.2 mph N/A   Overcast
2:55 PM 14.0 °F -4.7 °F 8.6 °F 79% 29.75 in 3.0 mi NNW 23.0 mph 31.1 mph N/A   Overcast
3:15 PM 14.0 °F -4.3 °F 5.0 °F 67% 29.76 in 2.5 mi NNW 21.9 mph 28.8 mph N/A   Overcast
3:35 PM 14.0 °F -4.7 °F 5.0 °F 67% 29.77 in 3.0 mi NNW 23.0 mph 27.6 mph N/A   Mostly Cloudy
3:55 PM 14.0 °F -2.5 °F 6.8 °F 73% 29.78 in 3.0 mi NNW 17.3 mph 28.8 mph N/A   Overcast
4:15 PM 12.2 °F -5.3 °F 6.8 °F 79% 29.80 in 1.2 mi NNW 18.4 mph 27.6 mph N/A   Overcast
4:35 PM 12.2 °F -7.9 °F 6.8 °F 79% 29.81 in 0.8 mi NNW 25.3 mph 32.2 mph N/A   Overcast
4:55 PM 12.2 °F -7.9 °F 3.2 °F 67% 29.82 in 2.0 mi NNW 25.3 mph 34.5 mph N/A   Overcast
5:15 PM 10.4 °F -8.6 °F 3.2 °F 73% 29.84 in 3.0 mi NNW 20.7 mph 28.8 mph N/A   Mostly Cloudy
5:35 PM 10.4 °F -11.0 °F 1.4 °F 67% 29.86 in 7.0 mi North 27.6 mph 31.1 mph N/A   Mostly Cloudy
5:55 PM 6.8 °F -13.4 °F 1.4 °F 79% 29.89 in 0.8 mi North 20.7 mph 31.1 mph N/A   Overcast
6:15 PM 5.0 °F -15.7 °F 1.4 °F 85% 29.91 in 0.8 mi North 20.7 mph 33.4 mph N/A   Overcast
6:35 PM 5.0 °F -16.2 °F -0.4 °F 78% 29.93 in 1.8 mi North 21.9 mph 31.1 mph N/A   Overcast
6:55 PM 3.2 °F -19.5 °F -4.0 °F 72% 29.94 in 10.0 mi North 24.2 mph 29.9 mph N/A   Scattered Clouds
7:15 PM 3.2 °F -18.1 °F -7.6 °F 61% 29.96 in 10.0 mi North 20.7 mph 26.5 mph N/A   Clear
7:35 PM 1.4 °F -18.2 °F -5.8 °F 72% 29.97 in 10.0 mi North 16.1 mph 24.2 mph N/A   Clear
7:55 PM 1.4 °F -19.9 °F -5.8 °F 72% 29.99 in 10.0 mi North 19.6 mph 27.6 mph N/A   Scattered Clouds
8:15 PM -0.4 °F -23.8 °F -7.6 °F 72% 29.99 in 10.0 mi North 23.0 mph 28.8 mph N/A   Scattered Clouds
8:35 PM -0.4 °F -23.8 °F -9.4 °F 66% 30.01 in 10.0 mi North 23.0 mph 29.9 mph N/A   Clear
8:55 PM -2.2 °F -24.7 °F -9.4 °F 71% 30.02 in 10.0 mi North 19.6 mph 26.5 mph N/A   Clear
9:15 PM -4.0 °F -28.1 °F -13.0 °F 65% 30.04 in 10.0 mi North 21.9 mph 28.8 mph N/A   Clear
9:35 PM -4.0 °F -26.4 °F -14.8 °F 60% 30.05 in 10.0 mi North 18.4 mph 27.6 mph N/A   Clear
9:55 PM -4.0 °F -26.4 °F -14.8 °F 60% 30.06 in 10.0 mi North 18.4 mph 27.6 mph N/A   Clear
10:15 PM -5.8 °F -28.8 °F -14.8 °F 65% 30.07 in 10.0 mi North 18.4 mph 21.9 mph N/A   Clear
10:35 PM -5.8 °F -26.8 °F -14.8 °F 65% 30.08 in 10.0 mi North 15.0 mph 24.2 mph N/A   Clear
10:55 PM -5.8 °F -27.5 °F -14.8 °F 65% 30.08 in 10.0 mi North 16.1 mph 23.0 mph N/A   Clear
11:15 PM -5.8 °F -27.5 °F -14.8 °F 65% 30.08 in 10.0 mi North 16.1 mph 23.0 mph N/A   Clear
11:35 PM -7.6 °F -29.8 °F -16.6 °F 65% 30.09 in 10.0 mi North 16.1 mph 23.0 mph N/A   Clear
11:55 PM -7.6 °F -29.1 °F -16.6 °F 65% 30.10 in 10.0 mi North 15.0 mph 19.6 mph N/A   Clear